,,,PA_Meas_PMT16A,,PR_Meas_QMR101_102,,RH_Meas_QMH101,,SR_Meas_QMS101,,TA_Meas_QMH101,,GenWind,,GenWind,
date,time,status,PA,status,PR,status,RH,status,SR,status,TA,status,DirAvg,status,SpdAvg,
2010-03-01, 00:00:04,VALID,1011.51,VALID,0,VALID,92.6529,VALID,0.105969,VALID,25.9141,VALID,129,VALID,1.48242,
2010-03-01, 00:01:04,VALID,1011.55,VALID,0,VALID,92.6758,VALID,0.105969,VALID,25.9551,VALID,116,VALID,1.13555,
2010-03-01, 00:02:04,VALID,1011.58,VALID,0,VALID,92.691,VALID,0,VALID,25.9531,VALID,88,VALID,1.37852,
2010-03-01, 00:03:04,VALID,1011.62,VALID,0,VALID,92.6834,VALID,0.105969,VALID,25.9531,VALID,95,VALID,1.61875,
2010-03-01, 00:04:04,VALID,1011.65,VALID,0,VALID,92.6758,VALID,0.105969,VALID,25.9726,VALID,90,VALID,1.23555,
2010-03-01, 00:05:04,VALID,1011.66,VALID,0,VALID,92.7215,VALID,0.105969,VALID,25.9921,VALID,73,VALID,1.48281,
2010-03-01, 00:06:04,VALID,1011.7,VALID,0,VALID,92.7597,VALID,0.105969,VALID,25.9726,VALID,78,VALID,1.77266,
2010-03-01, 00:07:04,VALID,1011.71,VALID,0,VALID,92.7749,VALID,0,VALID,25.9746,VALID,86,VALID,1.675,
2010-03-01, 00:08:04,VALID,1011.71,VALID,0,VALID,92.752,VALID,0.105969,VALID,25.9531,VALID,104,VALID,1.90508,
2010-03-01, 00:09:04,VALID,1011.72,VALID,0,VALID,92.7673,VALID,0.105969,VALID,25.9531,VALID,93,VALID,1.1125,
2010-03-01, 00:10:04,VALID,1011.71,VALID,0,VALID,92.7902,VALID,0.105969,VALID,25.9531,VALID,99,VALID,2.1,
2010-03-01, 00:11:04,VALID,1011.73,VALID,0,VALID,92.7749,VALID,0.105969,VALID,25.9531,VALID,93,VALID,0.971094,
2010-03-01, 00:12:04,VALID,1011.7,VALID,0,VALID,92.7749,VALID,0,VALID,25.9726,VALID,99,VALID,1.06758,
2010-03-01, 00:13:04,VALID,1011.69,VALID,0,VALID,92.7825,VALID,0,VALID,25.9726,VALID,103,VALID,0.912109,
2010-03-01, 00:14:04,VALID,1011.67,VALID,0,VALID,92.8054,VALID,0,VALID,25.9746,VALID,85,VALID,0.424609,
2010-03-01, 00:15:04,VALID,1011.66,VALID,0,VALID,92.813,VALID,0,VALID,25.9941,VALID,80,VALID,0.573828,
2010-03-01, 00:16:04,VALID,1011.65,VALID,0,VALID,92.7597,VALID,0,VALID,25.9746,VALID,126,VALID,1.09453,
2010-03-01, 00:17:04,VALID,1011.64,VALID,0,VALID,92.691,VALID,0,VALID,25.9746,VALID,112,VALID,1.2168,
2010-03-01, 00:18:04,VALID,1011.61,VALID,0,VALID,92.6682,VALID,0,VALID,25.9746,VALID,124,VALID,1.22852,
2010-03-01, 00:19:04,VALID,1011.58,VALID,0,VALID,92.5995,VALID,0,VALID,25.9941,VALID,102,VALID,1.25312,
2010-03-01, 00:20:04,VALID,1011.55,VALID,0,VALID,92.5461,VALID,0,VALID,25.9941,VALID,129,VALID,0.789063,
2010-03-01, 00:21:04,VALID,1011.52,VALID,0,VALID,92.508,VALID,0,VALID,25.9941,VALID,153,VALID,0.667578,
2010-03-01, 00:22:05,VALID,1011.49,VALID,0,VALID,92.5233,VALID,0,VALID,25.9941,VALID,168,VALID,0.601563,
2010-03-01, 00:23:05,VALID,1011.46,VALID,0,VALID,92.5614,VALID,0,VALID,25.9746,VALID,180,VALID,0.835547,
2010-03-01, 00:24:05,VALID,1011.46,VALID,0,VALID,92.5309,VALID,0,VALID,25.9765,VALID,193,VALID,0.7,
2010-03-01, 00:25:05,VALID,1011.45,VALID,0,VALID,92.5766,VALID,0,VALID,25.9551,VALID,214,VALID,0.596484,
2010-03-01, 00:26:05,VALID,1011.43,VALID,0,VALID,92.6376,VALID,0,VALID,25.9551,VALID,198,VALID,0.524609,
2010-03-01, 00:27:05,VALID,1011.4,VALID,0,VALID,92.6987,VALID,0,VALID,25.9551,VALID,193,VALID,1.0082,
2010-03-01, 00:28:05,VALID,1011.35,VALID,0,VALID,92.6529,VALID,0,VALID,25.9356,VALID,194,VALID,0.751172,
2010-03-01, 00:29:05,VALID,1011.33,VALID,0,VALID,92.6071,VALID,0,VALID,25.9336,VALID,128,VALID,0.412891,
2010-03-01, 00:30:05,VALID,1011.29,VALID,0,VALID,92.6224,VALID,0.105969,VALID,25.9336,VALID,130,VALID,0.292969,
2010-03-01, 00:31:05,VALID,1011.27,VALID,0,VALID,92.5995,VALID,0,VALID,25.9336,VALID,192,VALID,0.245703,
2010-03-01, 00:32:05,VALID,1011.27,VALID,0,VALID,92.5843,VALID,0,VALID,25.9336,VALID,192,VALID,0.210156,
2010-03-01, 00:33:05,VALID,1011.23,VALID,0,VALID,92.5843,VALID,0.105969,VALID,25.9531,VALID,185,VALID,0.815625,
2010-03-01, 00:34:05,VALID,1011.22,VALID,0,VALID,92.5614,VALID,0.105969,VALID,25.9531,VALID,153,VALID,0.789453,
2010-03-01, 00:35:05,VALID,1011.25,VALID,0,VALID,92.508,VALID,0,VALID,25.9336,VALID,147,VALID,0.592969,
2010-03-01, 00:36:05,VALID,1011.26,VALID,0,VALID,92.4928,VALID,0,VALID,25.9746,VALID,152,VALID,0.678125,
2010-03-01, 00:37:05,VALID,1011.27,VALID,0,VALID,92.4699,VALID,0,VALID,25.9531,VALID,154,VALID,0.714453,
2010-03-01, 00:38:05,VALID,1011.28,VALID,0,VALID,92.4623,VALID,0,VALID,25.9531,VALID,144,VALID,0.680078,
2010-03-01, 00:39:05,VALID,1011.31,VALID,0,VALID,92.508,VALID,0,VALID,25.9941,VALID,123,VALID,0.439844,
2010-03-01, 00:40:05,VALID,1011.31,VALID,0,VALID,92.5233,VALID,0.105969,VALID,25.9531,VALID,162,VALID,0.358594,
2010-03-01, 00:41:05,VALID,1011.35,VALID,0,VALID,92.5538,VALID,0,VALID,25.9726,VALID,142,VALID,0.747266,
2010-03-01, 00:42:05,VALID,1011.37,VALID,0,VALID,92.5385,VALID,0,VALID,25.9941,VALID,149,VALID,0.719531,
2010-03-01, 00:43:05,VALID,1011.38,VALID,0,VALID,92.4699,VALID,0,VALID,25.9531,VALID,151,VALID,0.646094,
2010-03-01, 00:44:05,VALID,1011.41,VALID,0,VALID,92.5309,VALID,0,VALID,25.9941,VALID,151,VALID,0.296484,
2010-03-01, 00:45:05,VALID,1011.39,VALID,0,VALID,92.5385,VALID,0,VALID,25.9941,VALID,151,VALID,0,
2010-03-01, 00:46:05,VALID,1011.41,VALID,0,VALID,92.6453,VALID,0,VALID,25.9921,VALID,151,VALID,0,
2010-03-01, 00:47:05,VALID,1011.48,VALID,0,VALID,92.7292,VALID,0.105969,VALID,25.9921,VALID,151,VALID,0,
2010-03-01, 00:48:05,VALID,1011.48,VALID,0,VALID,92.752,VALID,0,VALID,25.9921,VALID,151,VALID,0.0550781,
2010-03-01, 00:49:05,VALID,1011.46,VALID,0,VALID,92.7139,VALID,0,VALID,25.9531,VALID,145,VALID,0.34375,
2010-03-01, 00:50:05,VALID,1011.46,VALID,0,VALID,92.5843,VALID,0,VALID,25.9336,VALID,135,VALID,0.501562,
2010-03-01, 00:51:05,VALID,1011.42,VALID,0,VALID,92.5538,VALID,0,VALID,25.9746,VALID,125,VALID,0.926172,
2010-03-01, 00:52:05,VALID,1011.39,VALID,0.5,VALID,92.4851,VALID,0,VALID,25.9531,VALID,111,VALID,0.732031,
2010-03-01, 00:53:05,VALID,1011.36,VALID,0,VALID,92.5004,VALID,0,VALID,25.9531,VALID,90,VALID,0.772656,
2010-03-01, 00:54:05,VALID,1011.34,VALID,0,VALID,92.5766,VALID,0.105969,VALID,25.9531,VALID,77,VALID,0.654688,
2010-03-01, 00:55:05,VALID,1011.3,VALID,0,VALID,92.6148,VALID,0,VALID,25.9531,VALID,67,VALID,0.909766,
2010-03-01, 00:56:05,VALID,1011.28,VALID,0,VALID,92.6682,VALID,0.105969,VALID,25.9141,VALID,107,VALID,0.577734,
2010-03-01, 00:57:05,VALID,1011.25,VALID,0,VALID,92.7063,VALID,0,VALID,25.9141,VALID,109,VALID,0.470313,
2010-03-01, 00:58:05,VALID,1011.23,VALID,0,VALID,92.691,VALID,0,VALID,25.8946,VALID,132,VALID,0.729688,
2010-03-01, 00:59:05,VALID,1011.21,VALID,0,VALID,92.6987,VALID,0.105969,VALID,25.8946,VALID,157,VALID,0.845312,
2010-03-01, 01:00:05,VALID,1011.19,VALID,0,VALID,92.691,VALID,0.105969,VALID,25.8751,VALID,128,VALID,1.02148,
2010-03-01, 01:01:05,VALID,1011.17,VALID,0,VALID,92.752,VALID,0,VALID,25.8946,VALID,111,VALID,1.01641,
2010-03-01, 01:02:05,VALID,1011.17,VALID,0,VALID,92.4775,VALID,0.105969,VALID,25.8576,VALID,126,VALID,1.46484,
2010-03-01, 01:03:05,VALID,1011.21,VALID,0,VALID,92.4546,VALID,0.105969,VALID,25.8751,VALID,121,VALID,0.838672,
2010-03-01, 01:04:05,VALID,1011.23,VALID,0,VALID,89.8543,VALID,0.105969,VALID,25.6607,VALID,156,VALID,2.52187,
2010-03-01, 01:05:05,VALID,1011.27,VALID,0,VALID,84.7374,VALID,0.105969,VALID,25.5632,VALID,185,VALID,1.42344,
2010-03-01, 01:06:05,VALID,1011.29,VALID,0.5,VALID,78.7283,VALID,0.105969,VALID,25.4248,VALID,192,VALID,1.66328,
2010-03-01, 01:07:05,VALID,1011.3,VALID,0,VALID,81.4583,VALID,0.105969,VALID,25.2903,VALID,201,VALID,1.03711,
2010-03-01, 01:08:05,VALID,1011.29,VALID,0,VALID,84.7297,VALID,0.105969,VALID,25.1538,VALID,208,VALID,0.569922,
2010-03-01, 01:09:05,VALID,1011.27,VALID,0.5,VALID,87.9631,VALID,0.105969,VALID,25.0369,VALID,200,VALID,0.392969,
2010-03-01, 01:10:05,VALID,1011.26,VALID,0,VALID,89.0917,VALID,0.105969,VALID,24.9394,VALID,179,VALID,0.705859,
2010-03-01, 01:11:05,VALID,1011.28,VALID,0,VALID,89.7399,VALID,0.105969,VALID,24.8401,VALID,169,VALID,0.789453,
2010-03-01, 01:12:05,VALID,1011.29,VALID,0,VALID,89.6102,VALID,0.105969,VALID,24.725,VALID,139,VALID,0.792188,
2010-03-01, 01:13:05,VALID,1011.28,VALID,0.5,VALID,90.1517,VALID,0.105969,VALID,24.6666,VALID,101,VALID,0.607813,
2010-03-01, 01:14:05,VALID,1011.28,VALID,0,VALID,90.6168,VALID,0.105969,VALID,24.571,VALID,118,VALID,0.86875,
2010-03-01, 01:15:05,VALID,1011.27,VALID,0,VALID,90.7465,VALID,0,VALID,24.454,VALID,164,VALID,0.687109,
2010-03-01, 01:16:05,VALID,1011.3,VALID,0.5,VALID,91.0362,VALID,0,VALID,24.3956,VALID,107,VALID,0.997266,
2010-03-01, 01:17:05,VALID,1011.28,VALID,0,VALID,91.4252,VALID,0,VALID,24.3371,VALID,141,VALID,0.692187,
2010-03-01, 01:18:05,VALID,1011.28,VALID,0,VALID,91.4404,VALID,0,VALID,24.2591,VALID,128,VALID,1.07813,
2010-03-01, 01:19:05,VALID,1011.28,VALID,0,VALID,91.57,VALID,0,VALID,24.2202,VALID,124,VALID,0.707812,
2010-03-01, 01:20:05,VALID,1011.26,VALID,0.5,VALID,91.837,VALID,0,VALID,24.1422,VALID,119,VALID,0.816797,
2010-03-01, 01:21:05,VALID,1011.26,VALID,0,VALID,91.9895,VALID,0,VALID,24.1032,VALID,161,VALID,0.826953,
2010-03-01, 01:22:05,VALID,1011.22,VALID,0,VALID,92.2182,VALID,0,VALID,24.0448,VALID,151,VALID,0.922266,
2010-03-01, 01:23:05,VALID,1011.17,VALID,0,VALID,92.2945,VALID,0,VALID,23.9863,VALID,148,VALID,1.04531,
2010-03-01, 01:24:05,VALID,1011.15,VALID,0.5,VALID,92.4623,VALID,0,VALID,23.9668,VALID,158,VALID,0.743359,
2010-03-01, 01:25:05,VALID,1011.15,VALID,0,VALID,92.6148,VALID,0,VALID,23.9084,VALID,153,VALID,1.02969,
2010-03-01, 01:26:05,VALID,1011.14,VALID,0,VALID,92.7368,VALID,0,VALID,23.8889,VALID,151,VALID,1.20313,
2010-03-01, 01:27:05,VALID,1011.13,VALID,0.5,VALID,92.7978,VALID,0.105969,VALID,23.8481,VALID,153,VALID,0.859766,
2010-03-01, 01:28:05,VALID,1011.17,VALID,0,VALID,92.8741,VALID,0.105969,VALID,23.8091,VALID,169,VALID,0.928906,
2010-03-01, 01:29:05,VALID,1011.16,VALID,0,VALID,92.9579,VALID,0.105969,VALID,23.8109,VALID,176,VALID,0.882422,
2010-03-01, 01:30:05,VALID,1011.21,VALID,0.5,VALID,93.0342,VALID,0.105969,VALID,23.7507,VALID,193,VALID,0.959375,
2010-03-01, 01:31:05,VALID,1011.24,VALID,0,VALID,93.0723,VALID,0.105969,VALID,23.7117,VALID,182,VALID,0.817969,
2010-03-01, 01:32:05,VALID,1011.25,VALID,0,VALID,93.1257,VALID,0.105969,VALID,23.7117,VALID,177,VALID,0.84375,
2010-03-01, 01:33:05,VALID,1011.27,VALID,0,VALID,93.1715,VALID,0.105969,VALID,23.6727,VALID,170,VALID,0.810156,
2010-03-01, 01:34:05,VALID,1011.31,VALID,0.5,VALID,93.1943,VALID,0.211938,VALID,23.6532,VALID,184,VALID,0.750391,
2010-03-01, 01:35:05,VALID,1011.33,VALID,0,VALID,93.1867,VALID,0.105969,VALID,23.6532,VALID,188,VALID,0.222656,
2010-03-01, 01:36:05,VALID,1011.3,VALID,0,VALID,93.202,VALID,0.105969,VALID,23.6922,VALID,188,VALID,0.0960938,
2010-03-01, 01:37:05,VALID,1011.33,VALID,0,VALID,93.2477,VALID,0.105969,VALID,23.6922,VALID,188,VALID,0.185156,
2010-03-01, 01:38:05,VALID,1011.3,VALID,0.5,VALID,93.2401,VALID,0.105969,VALID,23.7117,VALID,256,VALID,0.24375,
2010-03-01, 01:39:05,VALID,1011.28,VALID,0,VALID,93.2706,VALID,0.211938,VALID,23.6922,VALID,184,VALID,0.609766,
2010-03-01, 01:40:05,VALID,1011.26,VALID,0.5,VALID,93.2935,VALID,0.105969,VALID,23.6727,VALID,172,VALID,0.776953,
2010-03-01, 01:41:05,VALID,1011.24,VALID,0.5,VALID,93.263,VALID,0.105969,VALID,23.6922,VALID,145,VALID,1.49727,
2010-03-01, 01:42:05,VALID,1011.22,VALID,0,VALID,93.2858,VALID,0.105969,VALID,23.6922,VALID,144,VALID,1.55938,
2010-03-01, 01:43:05,VALID,1011.19,VALID,0.5,VALID,93.3087,VALID,0.105969,VALID,23.6532,VALID,144,VALID,1.97031,
2010-03-01, 01:44:05,VALID,1011.16,VALID,0,VALID,93.2706,VALID,0,VALID,23.6763,VALID,135,VALID,1.93164,
2010-03-01, 01:45:05,VALID,1011.19,VALID,0.5,VALID,93.2782,VALID,0,VALID,23.655,VALID,156,VALID,2.10469,
2010-03-01, 01:46:05,VALID,1011.2,VALID,0,VALID,93.2782,VALID,0,VALID,23.6568,VALID,156,VALID,2.46367,
2010-03-01, 01:47:05,VALID,1011.22,VALID,0,VALID,93.2477,VALID,0,VALID,23.655,VALID,157,VALID,1.99648,
2010-03-01, 01:48:05,VALID,1011.24,VALID,0.5,VALID,93.2553,VALID,0,VALID,23.6356,VALID,162,VALID,1.58516,
2010-03-01, 01:49:05,VALID,1011.26,VALID,0,VALID,93.2172,VALID,0,VALID,23.6568,VALID,174,VALID,1.97187,
2010-03-01, 01:50:05,VALID,1011.29,VALID,0.5,VALID,93.2248,VALID,0,VALID,23.655,VALID,177,VALID,1.38203,
2010-03-01, 01:51:05,VALID,1011.3,VALID,0.5,VALID,93.1867,VALID,0,VALID,23.6745,VALID,152,VALID,1.56836,
2010-03-01, 01:52:05,VALID,1011.38,VALID,0.5,VALID,93.2172,VALID,0,VALID,23.655,VALID,176,VALID,1.09883,
2010-03-01, 01:53:05,VALID,1011.41,VALID,0.5,VALID,93.202,VALID,0,VALID,23.655,VALID,169,VALID,1.69375,
2010-03-01, 01:54:05,VALID,1011.46,VALID,0.5,VALID,93.1867,VALID,0,VALID,23.6356,VALID,137,VALID,1.32852,
2010-03-01, 01:55:05,VALID,1011.47,VALID,0.5,VALID,93.1562,VALID,0,VALID,23.6763,VALID,196,VALID,0.875,
2010-03-01, 01:56:05,VALID,1011.51,VALID,0.5,VALID,93.1638,VALID,0,VALID,23.6958,VALID,159,VALID,1.27305,
2010-03-01, 01:57:05,VALID,1011.56,VALID,0.5,VALID,93.1638,VALID,0,VALID,23.655,VALID,110,VALID,1.31016,
2010-03-01, 01:58:05,VALID,1011.62,VALID,0,VALID,93.1257,VALID,0,VALID,23.694,VALID,84,VALID,1.6332,
2010-03-01, 01:59:05,VALID,1011.66,VALID,0.5,VALID,93.1028,VALID,0,VALID,23.733,VALID,89,VALID,1.07539,
2010-03-01, 02:00:05,VALID,1011.73,VALID,0.5,VALID,93.0723,VALID,0,VALID,23.7543,VALID,97,VALID,1.21016,
2010-03-01, 02:01:05,VALID,1011.75,VALID,1,VALID,93.0647,VALID,0,VALID,23.7525,VALID,75,VALID,1.55039,
2010-03-01, 02:02:05,VALID,1011.74,VALID,1,VALID,93.0571,VALID,0,VALID,23.7525,VALID,45,VALID,1.25273,
2010-03-01, 02:03:05,VALID,1011.77,VALID,0.5,VALID,93.1105,VALID,0,VALID,23.7543,VALID,57,VALID,1.60898,
2010-03-01, 02:04:05,VALID,1011.76,VALID,0.5,VALID,93.0799,VALID,0,VALID,23.7135,VALID,67,VALID,1.56602,
2010-03-01, 02:05:05,VALID,1011.76,VALID,1,VALID,93.0342,VALID,0,VALID,23.733,VALID,82,VALID,2.05586,
2010-03-01, 02:06:05,VALID,1011.74,VALID,0.5,VALID,93.0037,VALID,0,VALID,23.7525,VALID,95,VALID,2.00391,
2010-03-01, 02:07:05,VALID,1011.74,VALID,0.5,VALID,92.9656,VALID,0,VALID,23.772,VALID,87,VALID,1.96289,
2010-03-01, 02:08:05,VALID,1011.7,VALID,0.5,VALID,92.9732,VALID,0,VALID,23.7525,VALID,98,VALID,1.57305,
2010-03-01, 02:09:05,VALID,1011.68,VALID,0.5,VALID,92.9656,VALID,0,VALID,23.772,VALID,101,VALID,1.79609,
2010-03-01, 02:10:05,VALID,1011.62,VALID,0.5,VALID,92.9656,VALID,0,VALID,23.733,VALID,114,VALID,1.41445,
2010-03-01, 02:11:05,VALID,1011.55,VALID,0.5,VALID,92.9351,VALID,0,VALID,23.772,VALID,90,VALID,1.33516,
2010-03-01, 02:12:05,VALID,1011.51,VALID,0,VALID,92.9122,VALID,0,VALID,23.7738,VALID,101,VALID,0.952344,
2010-03-01, 02:13:05,VALID,1011.45,VALID,0.5,VALID,92.9122,VALID,0,VALID,23.733,VALID,87,VALID,0.891406,
2010-03-01, 02:14:05,VALID,1011.42,VALID,0.5,VALID,92.9198,VALID,0,VALID,23.7543,VALID,136,VALID,0.844141,
2010-03-01, 02:15:05,VALID,1011.37,VALID,0,VALID,92.8817,VALID,0,VALID,23.7525,VALID,120,VALID,0.133203,
2010-03-01, 02:16:05,VALID,1011.35,VALID,0.5,VALID,92.8664,VALID,0,VALID,23.733,VALID,30,VALID,0.765625,
2010-03-01, 02:17:05,VALID,1011.32,VALID,0.5,VALID,92.8893,VALID,0,VALID,23.7135,VALID,34,VALID,1.09141,
2010-03-01, 02:18:05,VALID,1011.35,VALID,0,VALID,92.8817,VALID,0,VALID,23.6745,VALID,6,VALID,0.686719,
2010-03-01, 02:19:05,VALID,1011.4,VALID,0.5,VALID,92.8664,VALID,0,VALID,23.694,VALID,323,VALID,1.23086,
2010-03-01, 02:20:05,VALID,1011.43,VALID,0,VALID,92.8436,VALID,0,VALID,23.6745,VALID,311,VALID,0.808984,
2010-03-01, 02:21:05,VALID,1011.45,VALID,0.5,VALID,92.8054,VALID,0,VALID,23.7135,VALID,288,VALID,0.633594,
2010-03-01, 02:22:05,VALID,1011.44,VALID,0.5,VALID,92.7673,VALID,0,VALID,23.7525,VALID,300,VALID,1.00078,
2010-03-01, 02:23:05,VALID,1011.41,VALID,0.5,VALID,92.752,VALID,0,VALID,23.733,VALID,309,VALID,1.13281,
2010-03-01, 02:24:05,VALID,1011.35,VALID,1,VALID,92.7673,VALID,0,VALID,23.733,VALID,283,VALID,0.489844,
2010-03-01, 02:25:05,VALID,1011.32,VALID,1,VALID,92.6834,VALID,0,VALID,23.7525,VALID,296,VALID,0.767969,
2010-03-01, 02:26:05,VALID,1011.21,VALID,0.5,VALID,92.7215,VALID,0,VALID,23.733,VALID,300,VALID,0.946094,
2010-03-01, 02:27:05,VALID,1011.13,VALID,0.5,VALID,92.7063,VALID,0,VALID,23.7525,VALID,307,VALID,1.50469,
2010-03-01, 02:28:05,VALID,1011.03,VALID,0.5,VALID,92.7139,VALID,0,VALID,23.694,VALID,294,VALID,0.875,
2010-03-01, 02:29:05,VALID,1010.96,VALID,0.5,VALID,92.6758,VALID,0,VALID,23.733,VALID,313,VALID,0.713672,
2010-03-01, 02:30:05,VALID,1010.87,VALID,0.5,VALID,92.691,VALID,0,VALID,23.733,VALID,285,VALID,0.858203,
2010-03-01, 02:31:05,VALID,1010.81,VALID,0.5,VALID,92.6987,VALID,0,VALID,23.7135,VALID,330,VALID,0.629297,
2010-03-01, 02:32:05,VALID,1010.79,VALID,0.5,VALID,92.7063,VALID,0,VALID,23.694,VALID,350,VALID,0.379687,
2010-03-01, 02:33:05,VALID,1010.76,VALID,0,VALID,92.6834,VALID,0,VALID,23.694,VALID,11,VALID,0.366016,
2010-03-01, 02:34:05,VALID,1010.76,VALID,0.5,VALID,92.6605,VALID,0,VALID,23.6745,VALID,14,VALID,0.490625,
2010-03-01, 02:35:05,VALID,1010.82,VALID,0.5,VALID,92.6453,VALID,0,VALID,23.6745,VALID,33,VALID,0.49375,
2010-03-01, 02:36:05,VALID,1010.86,VALID,0.5,VALID,92.6148,VALID,0,VALID,23.6745,VALID,33,VALID,0.489062,
2010-03-01, 02:37:05,VALID,1010.86,VALID,0,VALID,92.63,VALID,0,VALID,23.6727,VALID,33,VALID,0.372266,
2010-03-01, 02:38:05,VALID,1010.91,VALID,0.5,VALID,92.5995,VALID,0,VALID,23.6745,VALID,33,VALID,0.422656,
2010-03-01, 02:39:05,VALID,1010.91,VALID,0,VALID,92.5995,VALID,0,VALID,23.655,VALID,33,VALID,0.458594,
2010-03-01, 02:40:05,VALID,1010.93,VALID,0,VALID,92.5843,VALID,0,VALID,23.6745,VALID,41,VALID,0.575391,
2010-03-01, 02:41:05,VALID,1010.96,VALID,0.5,VALID,92.5843,VALID,0,VALID,23.655,VALID,29,VALID,0.571094,
2010-03-01, 02:42:05,VALID,1011,VALID,0,VALID,92.5309,VALID,0,VALID,23.6745,VALID,343,VALID,0.595312,
2010-03-01, 02:43:05,VALID,1011.03,VALID,0,VALID,92.4851,VALID,0,VALID,23.694,VALID,360,VALID,0.659766,
2010-03-01, 02:44:05,VALID,1011.08,VALID,0.5,VALID,92.5156,VALID,0,VALID,23.7135,VALID,347,VALID,0.540234,
2010-03-01, 02:45:05,VALID,1011.07,VALID,0,VALID,92.5461,VALID,0.105969,VALID,23.694,VALID,321,VALID,1.20117,
2010-03-01, 02:46:05,VALID,1011.08,VALID,0.5,VALID,92.5461,VALID,0,VALID,23.655,VALID,14,VALID,0.854688,
2010-03-01, 02:47:05,VALID,1011.06,VALID,0,VALID,92.5385,VALID,0,VALID,23.6745,VALID,315,VALID,0.721484,
2010-03-01, 02:48:05,VALID,1011.04,VALID,0,VALID,92.5461,VALID,0,VALID,23.6356,VALID,318,VALID,0.739453,
2010-03-01, 02:49:05,VALID,1011,VALID,0.5,VALID,92.508,VALID,0,VALID,23.6356,VALID,308,VALID,0.910937,
2010-03-01, 02:50:05,VALID,1010.99,VALID,0,VALID,92.5309,VALID,0,VALID,23.6356,VALID,308,VALID,0.898047,
2010-03-01, 02:51:05,VALID,1010.91,VALID,0.5,VALID,92.4851,VALID,0,VALID,23.6356,VALID,309,VALID,0.847266,
2010-03-01, 02:52:05,VALID,1010.88,VALID,0,VALID,92.4851,VALID,0,VALID,23.6161,VALID,304,VALID,1.36406,
2010-03-01, 02:53:05,VALID,1010.81,VALID,0,VALID,92.4546,VALID,0,VALID,23.6356,VALID,292,VALID,0.683594,
2010-03-01, 02:54:05,VALID,1010.73,VALID,0.5,VALID,92.4394,VALID,0,VALID,23.6356,VALID,286,VALID,0.443359,
2010-03-01, 02:55:05,VALID,1010.67,VALID,0,VALID,92.4241,VALID,0.105969,VALID,23.655,VALID,295,VALID,0.308594,
2010-03-01, 02:56:05,VALID,1010.61,VALID,0,VALID,92.4318,VALID,0,VALID,23.655,VALID,317,VALID,0.9875,
2010-03-01, 02:57:05,VALID,1010.61,VALID,0,VALID,92.4013,VALID,0,VALID,23.6356,VALID,314,VALID,0.64375,
2010-03-01, 02:58:05,VALID,1010.57,VALID,0,VALID,92.4089,VALID,0,VALID,23.655,VALID,335,VALID,0.647656,
2010-03-01, 02:59:05,VALID,1010.59,VALID,0,VALID,92.3708,VALID,0,VALID,23.6745,VALID,331,VALID,0.464453,
2010-03-01, 03:00:05,VALID,1010.55,VALID,0,VALID,92.3784,VALID,0,VALID,23.655,VALID,10,VALID,0.791406,
2010-03-01, 03:01:05,VALID,1010.56,VALID,0.5,VALID,92.3936,VALID,0,VALID,23.655,VALID,10,VALID,0.562109,
2010-03-01, 03:02:05,VALID,1010.57,VALID,0,VALID,92.4089,VALID,0,VALID,23.6356,VALID,35,VALID,0.622656,
2010-03-01, 03:03:05,VALID,1010.59,VALID,0,VALID,92.3936,VALID,0,VALID,23.6356,VALID,33,VALID,0.635938,
2010-03-01, 03:04:05,VALID,1010.58,VALID,0,VALID,92.3784,VALID,0,VALID,23.6161,VALID,56,VALID,0.698047,
2010-03-01, 03:05:05,VALID,1010.61,VALID,0,VALID,92.3555,VALID,0,VALID,23.6356,VALID,62,VALID,0.705859,
2010-03-01, 03:06:05,VALID,1010.62,VALID,0,VALID,92.0733,VALID,0,VALID,23.655,VALID,74,VALID,0.717188,
2010-03-01, 03:07:05,VALID,1010.63,VALID,0,VALID,92.0581,VALID,0.105969,VALID,23.6745,VALID,85,VALID,0.601953,
2010-03-01, 03:08:04,VALID,1010.62,VALID,0,VALID,92.0428,VALID,0,VALID,23.6745,VALID,67,VALID,0.912109,
2010-03-01, 03:09:04,VALID,1010.62,VALID,0,VALID,92.0428,VALID,0,VALID,23.6745,VALID,95,VALID,0.912891,
2010-03-01, 03:10:04,VALID,1010.64,VALID,0,VALID,92.0428,VALID,0,VALID,23.6745,VALID,64,VALID,0.341016,
2010-03-01, 03:11:04,VALID,1010.57,VALID,0,VALID,92.02,VALID,0,VALID,23.6745,VALID,93,VALID,0.579297,
2010-03-01, 03:12:04,VALID,1010.57,VALID,0,VALID,91.9818,VALID,0.105969,VALID,23.6338,VALID,48,VALID,0.165234,
2010-03-01, 03:13:04,VALID,1010.5,VALID,0,VALID,92.0581,VALID,0,VALID,23.655,VALID,336,VALID,0.619141,
2010-03-01, 03:14:04,VALID,1010.44,VALID,0,VALID,92.0352,VALID,0,VALID,23.6356,VALID,352,VALID,0.142188,
2010-03-01, 03:15:04,VALID,1010.38,VALID,0,VALID,92.0123,VALID,0,VALID,23.6356,VALID,295,VALID,0.405078,
2010-03-01, 03:16:04,VALID,1010.28,VALID,0,VALID,92.0047,VALID,0,VALID,23.6356,VALID,320,VALID,0.942187,
2010-03-01, 03:17:04,VALID,1010.24,VALID,0,VALID,91.9895,VALID,0,VALID,23.6356,VALID,304,VALID,0.592188,
2010-03-01, 03:18:04,VALID,1010.21,VALID,0,VALID,91.9818,VALID,0,VALID,23.6356,VALID,302,VALID,0.953125,
2010-03-01, 03:19:04,VALID,1010.12,VALID,0,VALID,91.9437,VALID,0,VALID,23.655,VALID,7,VALID,0.505469,
2010-03-01, 03:20:04,VALID,1010.08,VALID,0,VALID,91.9513,VALID,0.105969,VALID,23.655,VALID,313,VALID,0.651953,
2010-03-01, 03:21:04,VALID,1010.05,VALID,0,VALID,91.9361,VALID,0.105969,VALID,23.6143,VALID,323,VALID,0.697266,
2010-03-01, 03:22:04,VALID,1010.06,VALID,0,VALID,91.9361,VALID,0,VALID,23.6338,VALID,297,VALID,0.304297,
2010-03-01, 03:23:04,VALID,1010.07,VALID,0,VALID,91.9208,VALID,0.105969,VALID,23.655,VALID,285,VALID,0.609766,
2010-03-01, 03:24:04,VALID,1010.05,VALID,0,VALID,91.9437,VALID,0,VALID,23.6356,VALID,305,VALID,0.801953,
2010-03-01, 03:25:04,VALID,1010.02,VALID,0,VALID,91.9208,VALID,0,VALID,23.655,VALID,323,VALID,0.855078,
2010-03-01, 03:26:04,VALID,1010.04,VALID,0,VALID,91.9132,VALID,0,VALID,23.655,VALID,340,VALID,0.735156,
2010-03-01, 03:27:04,VALID,1010.04,VALID,0,VALID,91.8903,VALID,0.105969,VALID,23.6356,VALID,301,VALID,0.809766,
2010-03-01, 03:28:04,VALID,1010.06,VALID,0,VALID,91.8598,VALID,0.105969,VALID,23.655,VALID,303,VALID,0.682813,
2010-03-01, 03:29:04,VALID,1010.1,VALID,0,VALID,91.8141,VALID,0,VALID,23.655,VALID,318,VALID,0.503516,
2010-03-01, 03:30:04,VALID,1010.07,VALID,0,VALID,91.837,VALID,0,VALID,23.694,VALID,302,VALID,0.534766,
2010-03-01, 03:31:04,VALID,1010.05,VALID,0,VALID,91.837,VALID,0,VALID,23.694,VALID,309,VALID,0.866016,
2010-03-01, 03:32:04,VALID,1010.04,VALID,0,VALID,91.8064,VALID,0,VALID,23.7135,VALID,305,VALID,0.606641,
2010-03-01, 03:33:04,VALID,1010.03,VALID,0,VALID,91.8141,VALID,0.105969,VALID,23.7135,VALID,319,VALID,1.29414,
2010-03-01, 03:34:04,VALID,1010.03,VALID,0,VALID,91.8141,VALID,0,VALID,23.7135,VALID,326,VALID,1.01016,
2010-03-01, 03:35:04,VALID,1009.98,VALID,0,VALID,91.8141,VALID,0,VALID,23.694,VALID,312,VALID,0.675781,
2010-03-01, 03:36:04,VALID,1010.01,VALID,0,VALID,91.8141,VALID,0,VALID,23.7348,VALID,310,VALID,0.772266,
2010-03-01, 03:37:04,VALID,1010.02,VALID,0,VALID,91.7912,VALID,0,VALID,23.7135,VALID,300,VALID,0.741016,
2010-03-01, 03:38:04,VALID,1010.05,VALID,0,VALID,91.7683,VALID,0.105969,VALID,23.7135,VALID,311,VALID,0.0625,
2010-03-01, 03:39:04,VALID,1010.07,VALID,0,VALID,91.7607,VALID,0,VALID,23.7135,VALID,7,VALID,0.663672,
2010-03-01, 03:40:04,VALID,1010.14,VALID,0,VALID,91.7836,VALID,0,VALID,23.7153,VALID,353,VALID,0.707812,
2010-03-01, 03:41:04,VALID,1010.18,VALID,0,VALID,91.8064,VALID,0,VALID,23.6745,VALID,337,VALID,1.02188,